When you browse on this site, cookies collect data to enhance your experience and personalize the content and advertising you see.
Visit our Privacy Policy to learn more. By continuing to use the site, you agree to this use of cookies and data.
  • In Latvia
  • List of Countries
  • For 7 days
  • Water Temperature
  • Weather Map
  • Weather Widgets
  • user-avatar
    Login

    Hourly Weather Coleraine

    Today, 21 September, Saturday

    Time Temperature Precipitation Wind Pressure Humidity
    00:00 +15°C° 0 mm 9 mps 758 mmHg 83%
    01:00 +15°C° 0 mm 9 mps 757 mmHg 81%
    02:00 +13°C° 0 mm 8 mps 756 mmHg 79%
    03:00 +13°C° 0 mm 8 mps 756 mmHg 76%
    04:00 +12°C° 0 mm 8 mps 755 mmHg 76%
    05:00 +12°C° 0 mm 9 mps 755 mmHg 76%
    06:00 +12°C° 0 mm 9 mps 755 mmHg 77%
    07:00 +13°C° 0 mm 9 mps 754 mmHg 75%
    08:00 +13°C° 0 mm 9 mps 754 mmHg 74%
    09:00 +15°C° 0 mm 9 mps 754 mmHg 73%
    10:00 +16°C° 0 mm 9 mps 753 mmHg 72%
    11:00 +16°C° 0 mm 9 mps 753 mmHg 70%
    12:00 +17°C° 0 mm 10 mps 752 mmHg 69%
    13:00 +17°C° 0 mm 9 mps 752 mmHg 70%
    14:00 +17°C° 0 mm 9 mps 752 mmHg 72%
    15:00 +18°C° 0 mm 9 mps 751 mmHg 73%
    16:00 +17°C° 0.1 mm 8 mps 751 mmHg 76%
    17:00 +17°C° 0.1 mm 8 mps 751 mmHg 78%
    18:00 +16°C° 0.1 mm 7 mps 751 mmHg 81%
    19:00 +16°C° 0.1 mm 7 mps 751 mmHg 81%
    20:00 +16°C° 0.1 mm 7 mps 750 mmHg 81%
    21:00 +16°C° 0.1 mm 7 mps 750 mmHg 81%
    22:00 +16°C° 0 mm 7 mps 750 mmHg 83%
    23:00 +17°C° 0 mm 7 mps 750 mmHg 84%

    Tomorrow, 22 September, Sunday

    Time Temperature Precipitation Wind Pressure Humidity
    00:00 +17°C° 0 mm 7 mps 749 mmHg 85%
    01:00 +16°C° 0.6 mm 6 mps 749 mmHg 89%
    02:00 +16°C° 0.6 mm 5 mps 749 mmHg 92%
    03:00 +15°C° 0.6 mm 5 mps 748 mmHg 96%
    04:00 +15°C° 0.9 mm 5 mps 748 mmHg 96%
    05:00 +15°C° 0.9 mm 4 mps 748 mmHg 96%
    06:00 +15°C° 0.9 mm 4 mps 748 mmHg 96%
    07:00 +15°C° 0.4 mm 4 mps 748 mmHg 96%
    08:00 +15°C° 0.4 mm 4 mps 748 mmHg 96%
    09:00 +16°C° 0.4 mm 3 mps 748 mmHg 95%
    10:00 +16°C° 1 mm 3 mps 748 mmHg 96%
    11:00 +16°C° 1 mm 3 mps 748 mmHg 96%
    12:00 +16°C° 1 mm 3 mps 748 mmHg 96%
    13:00 +14°C° 1.3 mm 3 mps 748 mmHg 95%
    14:00 +14°C° 1.3 mm 3 mps 748 mmHg 95%
    15:00 +14°C° 1.3 mm 3 mps 748 mmHg 94%
    16:00 +14°C° 0.2 mm 3 mps 748 mmHg 94%
    17:00 +14°C° 0.2 mm 3 mps 749 mmHg 94%
    18:00 +14°C° 0.2 mm 2 mps 749 mmHg 94%
    19:00 +13°C° 0 mm 3 mps 749 mmHg 94%
    20:00 +12°C° 0 mm 3 mps 750 mmHg 93%
    21:00 +12°C° 0 mm 4 mps 750 mmHg 93%
    22:00 +11°C° 0 mm 3 mps 751 mmHg 93%
    23:00 +11°C° 0 mm 3 mps 751 mmHg 93%

    Day after tomorrow, 23 September, Monday

    Time Temperature Precipitation Wind Pressure Humidity
    00:00 +10°C° 0 mm 3 mps 751 mmHg 93%
    01:00 +10°C° 0 mm 2 mps 751 mmHg 92%
    02:00 +10°C° 0 mm 2 mps 751 mmHg 92%
    03:00 +9°C° 0 mm 2 mps 751 mmHg 92%
    04:00 +9°C° 0 mm 2 mps 751 mmHg 93%
    05:00 +9°C° 0 mm 3 mps 751 mmHg 93%
    06:00 +9°C° 0 mm 3 mps 751 mmHg 93%
    07:00 +10°C° 0 mm 3 mps 751 mmHg 91%
    08:00 +11°C° 0 mm 4 mps 751 mmHg 89%
    09:00 +12°C° 0 mm 4 mps 750 mmHg 86%
    10:00 +13°C° 0 mm 5 mps 750 mmHg 84%
    11:00 +14°C° 0 mm 6 mps 750 mmHg 82%
    12:00 +15°C° 0 mm 7 mps 749 mmHg 80%
    13:00 +13°C° 0.8 mm 8 mps 748 mmHg 84%
    14:00 +13°C° 0.8 mm 8 mps 748 mmHg 89%
    15:00 +12°C° 0.8 mm 9 mps 747 mmHg 93%
    16:00 +13°C° 0.2 mm 9 mps 746 mmHg 93%
    17:00 +13°C° 0.2 mm 9 mps 746 mmHg 93%
    18:00 +13°C° 0.2 mm 8 mps 745 mmHg 94%
    19:00 +14°C° 0.5 mm 7 mps 745 mmHg 95%
    20:00 +15°C° 0.5 mm 6 mps 745 mmHg 95%
    21:00 +15°C° 0.5 mm 5 mps 745 mmHg 96%
    22:00 +15°C° 0.7 mm 5 mps 745 mmHg 96%
    23:00 +14°C° 0.7 mm 4 mps 745 mmHg 96%

    24 September, Tuesday

    Time Temperature Precipitation Wind Pressure Humidity
    00:00 +14°C° 0.7 mm 3 mps 745 mmHg 96%
    01:00 +13°C° 0 mm 3 mps 745 mmHg 96%
    02:00 +13°C° 0 mm 3 mps 744 mmHg 96%
    03:00 +13°C° 0 mm 3 mps 744 mmHg 96%
    04:00 +12°C° 0.1 mm 3 mps 744 mmHg 96%
    05:00 +12°C° 0.1 mm 3 mps 744 mmHg 96%
    06:00 +12°C° 0.1 mm 3 mps 744 mmHg 95%
    07:00 +13°C° 0.1 mm 3 mps 744 mmHg 94%
    08:00 +14°C° 0.1 mm 3 mps 744 mmHg 94%
    09:00 +14°C° 0.1 mm 3 mps 744 mmHg 93%
    10:00 +16°C° 0 mm 3 mps 744 mmHg 89%
    11:00 +16°C° 0 mm 3 mps 744 mmHg 85%
    12:00 +17°C° 0 mm 2 mps 744 mmHg 81%
    13:00 +17°C° 0 mm 3 mps 744 mmHg 81%
    14:00 +17°C° 0 mm 3 mps 744 mmHg 80%
    15:00 +17°C° 0 mm 3 mps 744 mmHg 79%
    16:00 +16°C° 0 mm 3 mps 744 mmHg 83%
    17:00 +14°C° 0 mm 3 mps 744 mmHg 86%
    18:00 +13°C° 0 mm 3 mps 744 mmHg 89%
    19:00 +13°C° 0 mm 3 mps 744 mmHg 90%
    20:00 +12°C° 0 mm 3 mps 744 mmHg 92%
    21:00 +11°C° 0 mm 3 mps 744 mmHg 93%
    22:00 +12°C° 0 mm 3 mps 744 mmHg 93%
    23:00 +12°C° 0 mm 3 mps 744 mmHg 93%

    25 September, Wednesday

    Time Temperature Precipitation Wind Pressure Humidity
    00:00 +13°C° 0 mm 3 mps 743 mmHg 93%
    01:00 +13°C° 0.1 mm 3 mps 743 mmHg 93%
    02:00 +13°C° 0.1 mm 4 mps 743 mmHg 93%
    03:00 +13°C° 0.1 mm 4 mps 744 mmHg 92%
    04:00 +12°C° 0 mm 3 mps 744 mmHg 93%
    05:00 +12°C° 0 mm 3 mps 743 mmHg 93%
    06:00 +11°C° 0 mm 3 mps 743 mmHg 93%
    07:00 +12°C° 0.1 mm 3 mps 743 mmHg 94%
    08:00 +12°C° 0.1 mm 4 mps 743 mmHg 94%
    09:00 +12°C° 0.1 mm 4 mps 743 mmHg 94%
    10:00 +13°C° 0.2 mm 4 mps 743 mmHg 94%
    11:00 +13°C° 0.2 mm 5 mps 742 mmHg 94%
    12:00 +14°C° 0.2 mm 5 mps 742 mmHg 94%
    13:00 +14°C° 0.6 mm 5 mps 742 mmHg 94%
    14:00 +15°C° 0.6 mm 4 mps 742 mmHg 94%
    15:00 +15°C° 0.6 mm 4 mps 741 mmHg 94%
    16:00 +14°C° 0.3 mm 4 mps 741 mmHg 94%
    17:00 +14°C° 0.3 mm 3 mps 741 mmHg 94%
    18:00 +14°C° 0.3 mm 3 mps 741 mmHg 94%
    19:00 +13°C° 0 mm 3 mps 741 mmHg 94%
    20:00 +13°C° 0 mm 3 mps 741 mmHg 95%
    21:00 +12°C° 0 mm 3 mps 740 mmHg 95%
    22:00 +12°C° 0.1 mm 3 mps 739 mmHg 96%
    23:00 +12°C° 0.1 mm 3 mps 739 mmHg 96%

    26 September, Thursday

    Time Temperature Precipitation Wind Pressure Humidity
    00:00 +13°C° 0.1 mm 3 mps 738 mmHg 97%
    01:00 +13°C° 4.5 mm 3 mps 737 mmHg 97%
    02:00 +13°C° 4.5 mm 4 mps 736 mmHg 97%
    03:00 +13°C° 4.5 mm 4 mps 735 mmHg 98%
    04:00 +12°C° 4 mm 5 mps 735 mmHg 96%
    05:00 +11°C° 4 mm 7 mps 735 mmHg 94%
    06:00 +10°C° 4 mm 8 mps 734 mmHg 92%
    07:00 +10°C° 0.1 mm 8 mps 735 mmHg 90%
    08:00 +11°C° 0.1 mm 7 mps 735 mmHg 88%
    09:00 +11°C° 0.1 mm 7 mps 735 mmHg 86%
    10:00 +11°C° 0.2 mm 7 mps 736 mmHg 84%
    11:00 +12°C° 0.2 mm 7 mps 736 mmHg 82%
    12:00 +13°C° 0.2 mm 6 mps 736 mmHg 79%
    13:00 +13°C° 0.3 mm 6 mps 736 mmHg 80%
    14:00 +13°C° 0.3 mm 6 mps 736 mmHg 81%
    15:00 +13°C° 0.3 mm 6 mps 735 mmHg 81%
    16:00 +11°C° 0.4 mm 6 mps 735 mmHg 84%
    17:00 +10°C° 0.4 mm 6 mps 735 mmHg 86%
    18:00 +9°C° 0.4 mm 7 mps 735 mmHg 88%
    19:00 +9°C° 1.1 mm 7 mps 735 mmHg 90%
    20:00 +9°C° 1.1 mm 8 mps 735 mmHg 92%
    21:00 +9°C° 1.1 mm 8 mps 735 mmHg 94%
    22:00 +9°C° 1.1 mm 8 mps 735 mmHg 94%
    23:00 +10°C° 1.1 mm 8 mps 735 mmHg 93%
    Show more